Vorticity
0 5 6 1 2 2 1 -2 5 8 7 10 5 7 7 8 8 7 7 7 7 6 6 5 4 3 6 8 9 7 7 9 9 7 7 6 7 6 7 5 5 6 5
1 4 4 7 0 1 7 6 3 5 8 7 11 9 6 6 6 7 7 7 7 6 6 6 5 5 5 7 10 9 8 10 10 8 7 6 6 7 7 7 7 6 7
4 1 9 4 -1 -2 -5 14 4 4 7 5 8 10 8 5 5 3 3 4 3 4 6 7 5 2 3 3 8 9 7 10 9 7 6 5 6 8 9 8 7 7 7
5 2 9 3 -1 6 -7 0 5 1 3 6 4 5 6 6 7 6 6 7 7 7 8 7 5 6 4 6 6 10 8 8 9 8 6 5 9 6 9 8 6 7 8
14 14 5 3 3 1 1 3 8 7 1 4 6 6 5 6 3 5 6 7 9 9 9 7 6 3 2 8 5 10 12 9 7 7 6 9 14 6 8 10 9 6 7
1 -6 8 4 3 2 -1 6 5 6 2 3 8 9 8 7 4 7 5 4 7 9 10 9 7 3 7 7 6 7 10 12 8 4 7 5 6 4 5 7 12 9 6
10 7 3 4 5 5 6 13 9 7 5 3 7 7 8 4 5 5 4 4 6 6 7 6 6 8 10 7 5 5 7 8 7 9 8 13 5 5 5 6 10 10 10
-1 5 2 4 1 4 11 9 13 6 4 5 6 6 7 7 5 5 5 2 8 7 7 5 4 4 4 6 5 3 8 4 8 6 8 13 9 10 8 6 9 13 11
4 4 4 3 4 6 15 12 10 7 6 7 6 7 8 4 4 6 5 7 8 6 6 5 3 8 10 8 7 6 8 9 10 4 6 6 8 9 7 8 8 12 10
2 3 4 6 8 10 10 9 7 5 6 7 9 6 6 6 5 5 5 5 5 5 6 4 3 7 5 6 8 8 9 8 10 11 6 4 4 7 9 10 8 9 9
0 1 6 7 7 10 12 9 6 6 6 7 8 8 6 7 7 6 6 4 6 6 5 12 5 5 5 6 6 7 8 7 7 7 9 9 6 4 5 6 10 9 9
2 4 4 5 7 11 10 7 6 6 6 6 7 8 10 9 9 7 7 7 6 7 8 7 6 5 6 7 8 7 7 5 8 8 8 8 9 7 6 5 5 7 11
4 4 6 4 9 9 9 8 7 9 7 7 6 6 8 10 8 9 7 8 9 7 6 6 5 4 3 4 6 5 6 6 6 5 5 6 7 11 8 7 6 4 5
5 5 5 7 10 7 9 8 8 7 8 7 6 4 6 6 4 4 3 5 7 6 4 7 6 5 4 3 3 4 3 3 5 4 4 4 4 6 8 11 7 6 4
8 5 9 8 8 8 7 8 9 9 9 8 7 8 9 7 5 5 5 5 3 3 6 3 2 3 4 4 3 3 3 2 3 4 3 3 3 3 5 5 7 9 8
5 6 10 1 2 6 3 4 5 5 7 6 5 5 5 5 4 4 5 5 4 5 6 6 5 4 4 4 3 3 3 4 5 3 3 3 4 4 3 3 5 5 7
6 10 4 1 7 5 4 4 5 6 7 5 5 6 5 5 7 7 7 6 4 6 5 4 4 5 4 5 5 4 4 4 5 6 5 5 3 3 4 5 3 3 4
7 6 4 5 4 4 4 5 4 4 6 6 5 6 6 6 6 7 7 6 7 6 7 6 6 3 2 5 3 4 4 5 6 4 3 4 5 6 4 4 2 4 3
3 7 4 6 1 4 5 4 7 11 4 7 8 7 7 6 7 4 5 5 3 1 3 4 5 7 6 4 5 6 6 6 4 5 6 5 3 4 5 4 5 5 3
5 6 5 3 7 8 4 4 6 1 4 5 6 4 4 6 6 2 4 1 -3 -1 4 2 6 7 11 9 7 7 7 6 11 11 8 6 5 6 3 3 4 5 6
4 3 3 4 6 5 5 6 5 5 5 7 7 9 8 4 5 3 -0 -1 -2 0 4 2 4 7 4 5 0 1 5 4 7 6 8 10 8 10 10 6 7 5 3
4 4 5 4 4 4 5 5 6 6 6 5 6 6 6 6 7 7 4 3 6 4 2 9 -0 9 5 2 2 2 5 5 8 5 6 8 7 9 3 7 3 6 8
6 6 6 7 5 4 3 5 6 5 6 7 6 5 7 6 6 5 5 5 4 5 7 8 7 3 6 4 4 7 10 7 5 6 7 7 8 8 9 10 8 5 10
8 5 7 8 7 9 9 9 7 7 7 6 7 7 5 4 4 5 7 3 4 5 5 5 6 5 2 5 8 6 7 11 12 13 11 10 8 0 9 4 7 8 6
6 2 3 6 7 6 6 5 5 8 9 8 8 8 8 8 7 4 1 4 3 5 6 5 3 6 6 7 10 10 12 8 1 8 2 8 1 -2 3 9 7 6 5
8 12 9 8 -2 2 5 5 3 6 6 7 7 6 5 3 1 2 6 6 5 7 3 5 5 9 11 13 13 14 4 6 4 -2 -10 7 2 5 11 3 10 3 8
Height
5874 5874 5875 5876 5875 5874 5874 5874 5872 5870 5869 5870 5869 5869 5868 5868 5867 5866 5866 5866 5865 5864 5863 5863 5862 5861 5859 5858 5856 5855 5854 5853 5852 5851 5850 5849 5848 5847 5847 5846 5846 5846 5846
5872 5872 5873 5875 5875 5874 5874 5873 5871 5870 5869 5867 5868 5868 5868 5867 5866 5865 5865 5864 5863 5862 5862 5861 5860 5859 5858 5856 5855 5854 5852 5851 5850 5849 5848 5847 5846 5846 5845 5845 5845 5844 5844
5872 5871 5872 5874 5875 5874 5873 5872 5870 5869 5869 5867 5867 5867 5867 5866 5866 5865 5864 5863 5862 5861 5861 5859 5858 5857 5856 5854 5853 5851 5850 5849 5849 5847 5846 5846 5845 5845 5844 5844 5843 5842 5842
5871 5871 5872 5872 5873 5872 5871 5871 5869 5868 5868 5867 5866 5866 5866 5865 5865 5864 5862 5862 5861 5859 5858 5858 5857 5856 5854 5853 5852 5851 5849 5848 5848 5846 5847 5845 5843 5843 5842 5842 5841 5841 5841
5868 5869 5870 5871 5871 5870 5869 5869 5868 5867 5866 5866 5865 5865 5864 5864 5863 5862 5862 5861 5860 5859 5858 5856 5855 5854 5853 5852 5851 5851 5849 5848 5847 5845 5844 5843 5842 5841 5841 5840 5840 5839 5839
5864 5865 5868 5868 5868 5867 5867 5866 5866 5865 5864 5863 5863 5863 5863 5863 5863 5862 5861 5860 5859 5858 5857 5856 5855 5853 5852 5850 5849 5850 5849 5848 5846 5844 5843 5841 5840 5840 5839 5839 5838 5838 5837
5856 5863 5865 5865 5865 5865 5864 5863 5863 5862 5861 5860 5861 5862 5862 5862 5861 5860 5860 5859 5858 5857 5856 5855 5854 5853 5851 5849 5849 5849 5847 5845 5844 5844 5842 5840 5839 5838 5838 5837 5836 5835 5836
5859 5860 5861 5861 5862 5862 5862 5860 5859 5858 5858 5858 5858 5859 5860 5859 5859 5858 5858 5858 5857 5856 5855 5854 5853 5852 5850 5848 5848 5848 5846 5844 5842 5842 5840 5839 5838 5838 5837 5836 5835 5833 5833
5853 5856 5857 5858 5859 5860 5858 5857 5855 5854 5855 5855 5856 5857 5857 5858 5857 5857 5857 5856 5855 5855 5854 5854 5853 5851 5850 5849 5848 5847 5845 5844 5843 5841 5839 5839 5837 5836 5834 5833 5833 5832 5831
5849 5851 5853 5855 5855 5855 5853 5852 5851 5851 5852 5853 5854 5854 5855 5855 5855 5855 5854 5853 5853 5852 5852 5851 5851 5850 5848 5847 5846 5845 5844 5842 5841 5840 5839 5837 5835 5835 5834 5832 5830 5829 5830
5845 5846 5848 5850 5851 5851 5849 5848 5847 5848 5849 5850 5850 5850 5852 5852 5853 5852 5851 5850 5850 5850 5850 5849 5849 5848 5847 5846 5845 5843 5842 5840 5839 5838 5838 5837 5836 5834 5832 5831 5830 5829 5828
5842 5842 5845 5846 5848 5847 5845 5844 5844 5845 5846 5847 5847 5848 5849 5850 5850 5849 5848 5847 5847 5848 5847 5847 5847 5846 5845 5844 5843 5842 5841 5839 5838 5836 5835 5834 5834 5833 5832 5831 5829 5828 5827
5839 5839 5841 5843 5843 5842 5841 5841 5842 5842 5843 5844 5845 5845 5846 5846 5846 5846 5846 5845 5845 5845 5845 5844 5844 5842 5842 5840 5840 5840 5839 5837 5836 5834 5834 5832 5832 5832 5830 5829 5828 5827 5825
5835 5836 5837 5839 5838 5838 5838 5839 5839 5840 5841 5841 5842 5842 5842 5842 5841 5842 5842 5842 5841 5841 5841 5841 5840 5839 5838 5837 5836 5837 5836 5835 5834 5833 5831 5829 5828 5828 5828 5827 5826 5825 5824
5832 5832 5832 5832 5835 5834 5835 5836 5837 5837 5839 5838 5838 5839 5840 5839 5839 5839 5838 5838 5838 5838 5837 5836 5836 5835 5835 5834 5833 5832 5833 5831 5830 5829 5828 5827 5826 5825 5824 5823 5823 5823 5823
5824 5825 5827 5828 5830 5830 5830 5832 5834 5834 5835 5835 5834 5834 5834 5835 5835 5834 5834 5833 5833 5832 5832 5832 5832 5830 5830 5830 5829 5828 5827 5829 5828 5826 5825 5822 5821 5821 5820 5819 5819 5818 5818
5821 5824 5825 5823 5824 5824 5825 5827 5829 5829 5830 5830 5830 5829 5830 5831 5830 5830 5830 5830 5829 5829 5828 5827 5825 5825 5824 5823 5823 5823 5822 5821 5822 5823 5821 5820 5817 5814 5815 5815 5814 5813 5813
5816 5820 5820 5821 5819 5818 5820 5823 5824 5825 5825 5825 5824 5823 5823 5825 5826 5825 5826 5825 5825 5825 5825 5824 5823 5820 5818 5818 5817 5815 5814 5814 5814 5814 5815 5813 5811 5810 5808 5808 5808 5807 5807
5806 5812 5815 5814 5814 5815 5815 5818 5820 5820 5820 5820 5820 5820 5820 5819 5820 5820 5820 5820 5819 5819 5819 5819 5818 5817 5815 5813 5811 5810 5809 5807 5805 5806 5806 5806 5805 5803 5802 5800 5800 5800 5800
5800 5804 5808 5810 5810 5810 5810 5810 5813 5814 5815 5816 5817 5816 5815 5815 5815 5815 5814 5813 5812 5812 5811 5812 5811 5810 5809 5806 5804 5804 5803 5802 5801 5800 5799 5797 5796 5796 5795 5794 5792 5791 5792
5792 5796 5800 5803 5805 5805 5804 5804 5804 5804 5805 5806 5807 5808 5807 5807 5806 5807 5807 5806 5805 5804 5802 5801 5799 5799 5799 5797 5795 5794 5792 5792 5792 5792 5790 5788 5788 5786 5786 5786 5784 5783 5782
5786 5788 5791 5794 5797 5798 5797 5797 5798 5798 5797 5797 5798 5798 5799 5799 5798 5798 5798 5798 5797 5796 5795 5793 5791 5789 5788 5787 5785 5783 5781 5781 5781 5779 5778 5779 5778 5777 5776 5775 5775 5774 5771
5783 5783 5784 5787 5788 5788 5789 5789 5789 5789 5789 5790 5789 5789 5789 5790 5790 5789 5788 5788 5787 5787 5785 5782 5780 5778 5777 5775 5773 5772 5769 5767 5767 5767 5767 5766 5766 5765 5764 5764 5763 5762 5760
5775 5778 5778 5778 5778 5779 5781 5781 5781 5780 5781 5781 5780 5780 5780 5780 5780 5779 5778 5777 5776 5774 5773 5770 5767 5765 5763 5762 5759 5756 5754 5753 5751 5752 5751 5750 5750 5751 5752 5751 5749 5748 5747
5769 5771 5771 5772 5771 5771 5773 5773 5773 5773 5772 5772 5772 5772 5772 5771 5770 5769 5768 5766 5765 5763 5761 5759 5756 5754 5751 5748 5745 5743 5740 5737 5736 5735 5738 5737 5737 5736 5736 5736 5736 5734 5733
5761 5762 5762 5763 5765 5764 5764 5763 5763 5762 5763 5762 5761 5761 5761 5760 5759 5758 5757 5755 5754 5751 5748 5745 5743 5740 5737 5734 5732 5730 5729 5726 5724 5721 5720 5721 5719 5718 5718 5719 5719 5719 5717